Meteo Giornale » Osservazioni meteo Italia » Cuneo-Levaldigi
ore: 09:20 - Osservazioni Meteo Cuneo-Levaldigi
Lat. 44° 32' N Lon. 7° 37' E Alt. 396 metri s.l.m.
23 °C
Sereno
Temp. 24 Ore
16 °C
30 °C
Nord/NOvest
9.3 Km/h
Dew point 16 °C
Umidità 64 %
Visibilità 10 Km
Il sole sorge alle ore 06:51
Il sole tramonta alle ore 20:08
| Data e Ora | Cielo e Fenomeni | T °C | DP °C | Um. % | Pres. hPa | Vis. km | Vento km/h | |
|---|---|---|---|---|---|---|---|---|
| Oggi h: 09:20 | Sereno | 23 | 16 | 64 | 1017 | 10 | N/NO 9.3 | |
| Oggi h: 08:50 | Sereno | 22 | 17 | 73 | 1017 | 10 | N 3.7 | |
| Oggi h: 08:20 | Sereno | 19 | 16 | 82 | 1016 | 10 | N 3.7 | |
| Oggi h: 07:50 | Sereno | 18 | 16 | 88 | 1016 | 10 | N 5.5 | |
| Oggi h: 07:20 | Sereno | 16 | 15 | 93 | 1016 | 10 | SO 7.4 | |
| Oggi h: 06:50 | Sereno | 16 | 15 | 93 | 1016 | 10 | SO 11.1 | |
| Oggi h: 06:20 | Sereno | 16 | 15 | 93 | 1016 | 10 | SO 7.4 | |
| Oggi h: 05:50 | Sereno | 16 | 15 | 93 | 1016 | 10 | S/SO 11.1 | |
| Oggi h: 05:20 | Sereno | 17 | 16 | 93 | 1016 | 10 | N 5.5 | |
| Oggi h: 04:50 | Sereno | 17 | 16 | 93 | 1016 | 10 | N 5.5 | |
| Oggi h: 04:20 | Sereno | 18 | 16 | 88 | 1016 | 10 | O/SO 7.4 | |
| Oggi h: 03:50 | Sereno | 17 | 16 | 93 | 1016 | 10 | SO 7.4 | |
| Oggi h: 03:20 | Sereno | 17 | 16 | 93 | 1016 | 10 | S 11.1 | |
| Oggi h: 02:50 | Sereno | 18 | 16 | 88 | 1016 | 10 | S/SO 13 | |
| Oggi h: 02:20 | Sereno | 18 | 16 | 88 | 1016 | 10 | SO 9.3 | |
| Oggi h: 01:50 | Sereno | 19 | 17 | 88 | 1016 | 10 | SO 9.3 | |
| Oggi h: 01:20 | Sereno | 18 | 17 | 93 | 1016 | 10 | SO 9.3 | |
| Oggi h: 00:50 | Sereno | 18 | 17 | 93 | 1016 | 10 | S/SO 9.3 | |
| Oggi h: 00:20 | Sereno | 19 | 17 | 88 | 1016 | 10 | N 3.7 | |
| Ieri h: 23:50 | Sereno | 19 | 18 | 93 | 1016 | 10 | N 5.5 | |
| Ieri h: 23:20 | Poco Nuvoloso | 20 | 18 | 88 | 1016 | 10 | N 1.8 | |
| Ieri h: 22:50 | Sereno | 21 | 18 | 82 | 1016 | 10 | N 3.7 | |
| Ieri h: 22:20 | Nuvoloso | 22 | 18 | 78 | 1016 | 10 | N 3.7 | |
| Ieri h: 21:50 | Poco Nuvoloso | 24 | 17 | 64 | 1016 | 10 | N 3.7 | |
| Ieri h: 21:20 | Nuvoloso | 24 | 17 | 64 | 1016 | 10 | N 3.7 | |
| Ieri h: 20:50 | Sereno | 24 | 17 | 64 | 1015 | 10 | N 3.7 | |
| Ieri h: 20:20 | Poco Nuvoloso | 26 | 15 | 50 | 1015 | 10 | N 1.8 | |
| Ieri h: 19:50 | Molto Nuvoloso | 27 | 16 | 50 | 1015 | 10 | N 5.5 | |
| Ieri h: 19:20 | Molto Nuvoloso | 28 | 14 | 42 | 1015 | 10 | N 5.5 | |
| Ieri h: 18:50 | Molto Nuvoloso | 29 | 13 | 37 | 1015 | 10 | N 7.4 | |
| Ieri h: 18:20 | Poco Nuvoloso | 30 | 12 | 33 | 1015 | 10 | N 7.4 | |
| Ieri h: 17:50 | Nuvoloso | 30 | 12 | 33 | 1015 | 10 | N 9.3 | |



